Victoria, TX

7:28 AM CST on December 14, 2019 (GMT -0600)
Victoria Regional

Weather History for KVCT - October, 2019

Change the Weather History Date:

Thursday, October 31, 2019

  Actual Average Record
Temperature  
Mean Temperature 48 °F 68 °F  
Max Temperature 57 °F 80 °F 92 °F (1947)
Min Temperature 38 °F 57 °F 31 °F (1993)
Degree Days  
Heating Degree Days 17 2  
Month to date heating degree days 40 20  
Since 1 July heating degree days 40 23  
Cooling Degree Days 0 5  
Month to date cooling degree days 296 245  
Year to date cooling degree days 3561 3043  
Moisture  
Dew Point 33 °F    
Average Humidity 61    
Maximum Humidity 80    
Minimum Humidity 33    
Precipitation  
Precipitation 0.00 in 0.13 in 4.97 in (1981)
Month to date precipitation 4.50 4.64  
Year to date precipitation 23.86 35.67  
Snow  
Snow 0.00 in 0.00 in 0.00 in (2002)
Month to date snowfall 0.0 0.0  
Since 1 July snowfall 0.0 0.0  
Since 1 September snowfall 0.0 0.0  
Snow Depth 0.00 in    
Sea Level Pressure  
Sea Level Pressure 30.38 in    
Wind  
Wind Speed 14 mph ()    
Max Wind Speed 25 mph    
Max Gust Speed 33 mph    
Visibility 10.0 miles    
Events      
T = Trace of Precipitation, MM = Missing Value Source: Averaged Metar Reports

Daily Weather History Graph

Daily Weather History Graph

Search for Another Location

Airport or City:

Astronomy

Oct. 31, 2019 Rise Set
Actual Time 7:39 AM CDT 6:43 PM CDT
Civil Twilight 7:14 AM CDT 7:07 PM CDT
Nautical Twilight 6:46 AM CDT 7:35 PM CDT
Astronomical Twilight 6:19 AM CDT 8:02 PM CDT
Moon 11:15 AM CDT (10/31) 9:53 PM CDT (10/31)
Length of Visible Light 11h 52m
Length of Day
11h 03m
Waxing Crescent, 16% of the Moon is Illuminated
Oct 31
Waxing Crescent
Nov 4
First Quarter
Nov 12
Full
Nov 19
Last Quarter
Nov 26
New

Hourly Weather History & Observations

Time (CDT) Temp. Windchill Dew Point Humidity Pressure Visibility Wind Dir Wind Speed Gust Speed Precip Events Conditions
12:24 AM 46.9 °F - 41.0 °F 80% 30.22 in 10.0 mi North 21.9 mph 29.9 mph N/A   Overcast
12:51 AM 46.9 °F - 39.9 °F 77% 30.24 in 10.0 mi NNW 18.4 mph 29.9 mph N/A   Overcast
1:51 AM 46.0 °F 38.5 °F 37.9 °F 73% 30.27 in 10.0 mi North 19.6 mph 32.2 mph N/A   Overcast
2:51 AM 45.0 °F 36.6 °F 36.0 °F 71% 30.29 in 10.0 mi NNW 21.9 mph 28.8 mph N/A   Mostly Cloudy
3:51 AM 44.1 °F 36.8 °F 35.1 °F 71% 30.31 in 10.0 mi NNW 16.1 mph 21.9 mph N/A   Overcast
4:51 AM 42.1 °F 33.6 °F 33.1 °F 70% 30.32 in 10.0 mi NNW 18.4 mph 27.6 mph N/A   Clear
5:51 AM 41.0 °F 32.8 °F 32.0 °F 70% 30.33 in 10.0 mi North 16.1 mph 27.6 mph N/A   Clear
6:51 AM 39.9 °F 31.4 °F 30.9 °F 70% 30.37 in 10.0 mi NNW 16.1 mph 24.2 mph N/A   Clear
8:51 AM 42.1 °F 35.2 °F 30.9 °F 65% 30.44 in 10.0 mi NNW 12.7 mph 24.2 mph N/A   Clear
9:51 AM 45.0 °F 37.6 °F 30.9 °F 58% 30.46 in 10.0 mi NNW 17.3 mph 27.6 mph N/A   Clear
10:51 AM 48.0 °F - 30.9 °F 52% 30.46 in 10.0 mi North 15.0 mph 26.5 mph N/A   Clear
11:51 AM 50.0 °F - 30.0 °F 46% 30.46 in 10.0 mi NNW 16.1 mph 24.2 mph N/A   Clear
12:51 PM 53.1 °F - 28.9 °F 40% 30.44 in 10.0 mi North 15.0 mph 24.2 mph N/A   Clear
1:51 PM 54.0 °F - 30.0 °F 40% 30.41 in 10.0 mi North 16.1 mph 27.6 mph N/A   Clear
2:51 PM 57.0 °F - 30.0 °F 36% 30.40 in 10.0 mi North 15.0 mph 23.0 mph N/A   Clear
3:51 PM 57.9 °F - 28.9 °F 33% 30.39 in 10.0 mi NNW 13.8 mph - N/A   Clear
4:51 PM 57.0 °F - 28.9 °F 34% 30.38 in 10.0 mi NNW 11.5 mph - N/A   Clear
5:51 PM 54.0 °F - 28.9 °F 38% 30.38 in 10.0 mi North 11.5 mph - N/A   Clear
6:51 PM 46.9 °F - 33.1 °F 59% 30.39 in 10.0 mi NNW 8.1 mph - N/A   Clear
7:51 PM 41.0 °F 37.1 °F 35.1 °F 79% 30.40 in 10.0 mi NW 5.8 mph - N/A   Clear
8:51 PM 41.0 °F 36.4 °F 34.0 °F 76% 30.41 in 10.0 mi NNW 6.9 mph - N/A   Clear
9:51 PM 39.9 °F 35.1 °F 34.0 °F 79% 30.42 in 10.0 mi NNW 6.9 mph - N/A   Clear
10:51 PM 39.9 °F 36.7 °F 33.1 °F 77% 30.42 in 10.0 mi North 4.6 mph - N/A   Clear
11:51 PM 39.0 °F 34.0 °F 33.1 °F 79% 30.41 in 10.0 mi North 6.9 mph - N/A   Clear